OpenBCM V1.08-5-g2f4a (Linux)

Packet Radio Mailbox

IZ3LSV

[San Dona' di P. JN]

 Login: GUEST





  
I0OJJ  > KEPS     16.09.25 02:45l 313 Lines 14851 Bytes #179 (0) @ AMSAT
BID : ORB25259.1
Subj: 2Line Orbital Elements 25259.AMSAT
Path: IZ3LSV<IK6IHL<IK7NXU<HB9ON<DK0WUE<PD0LPM<IR0AAB<I0OJJ
Sent: 250916/0025z @:I0OJJ.ITA.EU [Rome] obcm1.08-10-g596e
From: I0OJJ @ I0OJJ.ITA.EU (Gustavo)
To:   KEPS @ AMSAT
X-Info: This message was generated automatically


QST de W1STR

AMSAT Orbital Elements for Amateur Satellites in TLE Format
From Orbital Analysis Office
New England Sci-Tech STEM Education Center
Natick MA September 16, 2025
To all radio amateurs


These element sets describe the orbits of various satellites 
in use by the amateur radio community. For details see:
www.amsat.org/keplerian-elements-formats/

A daily update of element sets is available at:
www.amsat.org/tle/daily-bulletin.txt
or without bulletin text:
www.amsat.org/tle/dailytle.txt


AO-07
1 07530U 74089B   25258.57101962 -.00000040  00000-0  43691-4 0  9998
2 07530 101.9984 263.8916 0011938 296.3014 182.6186 12.53691509326106
UO-11
1 14781U 84021B   25258.34434643  .00001693  00000-0  18266-3 0  9994
2 14781  97.7658 222.8471 0008385  24.9814 335.1808 14.89670614216196
AO-27
1 22825U 93061C   25258.11991375  .00000067  00000-0  42577-4 0  9998
2 22825  98.7274 320.1196 0008406 179.7374 180.3814 14.30828500667663
FO-29
1 24278U 96046B   25258.56982134 -.00000028  00000-0  44288-5 0  9990
2 24278  98.5586 139.5019 0350911  88.6812 275.4496 13.53253595436029
NOAA-15
1 25338U 98030A   25258.55462682  .00000110  00000-0  62775-4 0  9994
2 25338  98.5320 281.3124 0011412  74.4868 285.7572 14.27016238422128
GO-32
1 25397U 98043D   25258.54744245  .00000072  00000-0  51187-4 0  9992
2 25397  98.9817 239.7596 0000466 340.6985  19.4175 14.24338620412234
ISS
1 25544U 98067A   25258.38319791  .00010865  00000-0  19592-3 0  9992
2 25544  51.6329 220.0184 0004332 341.8913  18.1921 15.50310585529153
NO-44
1 26931U 01043C   25258.37320675  .00000248  00000-0  12365-3 0  9998
2 26931  67.0492 234.9825 0007065 275.2445  84.7851 14.31778738251102
SO-50
1 27607U 02058C   25258.01050130  .00001284  00000-0  17457-3 0  9991
2 27607  64.5509 259.7260 0066296 313.5592  46.0019 14.81882541223662
CO-55
1 27844U 03031E   25258.27514289  .00000392  00000-0  18944-3 0  9995
2 27844  98.6790 265.3028 0008424 263.6061  96.4159 14.24068096152545
CO-57
1 27848U 03031J   25258.26949755  .00000326  00000-0  16290-3 0  9997
2 27848  98.6821 265.2286 0008365 283.6694  76.3553 14.23392610152262
RS-22
1 27939U 03042A   25258.59329881  .00001045  00000-0  17252-3 0  9996
2 27939  98.3368  70.4790 0012426  62.3863   2.7501 14.72584842175125
CO-58
1 28895U 05043F   25258.18675967  .00001933  00000-0  32067-3 0  9992
2 28895  98.2636  43.8500 0014359   2.3325 357.7946 14.71342601 61293
CO-65
1 32785U 08021C   25258.54913009  .00006156  00000-0  43324-3 0  9996
2 32785  97.7951 230.5511 0008062 234.8938 125.1533 15.05404628943815
CO-66
1 32791U 08021J   25258.47803165  .00015846  00000-0  71487-3 0  9993
2 32791  97.7373 240.9029 0004326 149.3106 210.8383 15.21091662945360
RS-30
1 32953U 08025A   25258.58632740  .00000005  00000-0 -35698-4 0  9995
2 32953  82.5071 166.2443 0018542 188.7767 171.2991 12.43168109785574
NOAA-19
1 33591U 09005A   25258.60344788  .00000077  00000-0  65190-4 0  9996
2 33591  98.9886 323.8193 0014817  87.6474 272.6395 14.13406925855699
SRMSAT
1 37841U 11058D   25258.38393613  .00000465  00000-0  10876-3 0  9996
2 37841  19.9719 282.6859 0011953  61.1395  74.1661 14.11464609718945
ZACUBE-1
1 39417U 13066B   25258.30583191  .00008023  00000-0  67811-3 0  9991
2 39417  97.7902 214.8985 0045893  85.6378 275.0085 14.97518865639530
Delfi-N3xt
1 39428U 13066N   25258.47879955  .00009245  00000-0  91124-3 0  9998
2 39428  97.8281 175.0775 0084351  38.9602 321.7652 14.89574266633644
GOMX-1
1 39430U 13066Q   25258.58245530  .00001710  00000-0  27055-3 0  9990
2 39430  97.6720 111.2062 0130360 238.4088 120.4341 14.67998596629603
LO-74
1 39440U 13066AA  25258.57263409  .00003197  00000-0  32106-3 0  9999
2 39440  97.8550 202.5264 0059994 215.2151 144.5097 14.90670928636034
AO-73
1 39444U 13066AE  25258.35196354  .00013547  00000-0  97330-3 0  9993
2 39444  97.7925 220.7643 0043405  58.6362 301.9099 15.03631360638270
DTUSAT-2
1 40030U 14033W   25258.37490929  .00010676  00000-0  66808-3 0  9994
2 40030  98.0656 235.0588 0011122  90.2796 269.9705 15.09551612611140
EO-80
1 40032U 14033Y   25258.45635056  .00010791  00000-0  67377-3 0  9997
2 40032  98.0542 234.6627 0009746  42.6793 317.5190 15.09643373611135
LILACSAT-2
1 40908U 15049K   25258.59880828  .00014953  00000-0  36205-3 0  9991
2 40908  97.5034 281.4423 0009695 156.3527 203.8166 15.41157376553316
IO-86
1 40931U 15052B   25151.18580175  .00001241  00000-0  78118-4 0  9996
2 40931   6.0006  24.0987 0012733 338.8432  21.1169 14.78805930523159
Horyu-4
1 41340U 16012D   25258.09211493  .00027351  00000-0  62904-3 0  9995
2 41340  30.9944 194.2005 0006098 344.7353  15.3109 15.41397215527827
Lapan A3
1 41603U 16040E   25258.65838215  .00004156  00000-0  14315-3 0  9998
2 41603  97.1423 259.4782 0008785 281.1284  78.8969 15.30524737512780
CAS-2T
1 41847U 16066G   25258.47941523  .00001299  00000-0  19441-3 0  9993
2 41847  98.4129 332.0709 0344204 242.1641 114.4280 14.43716712465146
CAS-4B
1 42759U 17034B   25258.69543374  .00245517  00000-0  10335-2 0  9993
2 42759  43.0003  90.3651 0023926 269.8978  89.9153 15.83591699458035
CAS-4A
1 42761U 17034D   25258.54178612  .00291332  38060-4  10609-2 0  9990
2 42761  43.0037  86.7489 0024755 275.3281  84.4768 15.87189782458046
TechnoSat
1 42829U 17042E   25258.44234541  .00004006  00000-0  30637-3 0  9990
2 42829  97.4017  62.5547 0016213 317.0215  42.9743 15.02354667445412
AO-91
1 43017U 17073E   25258.56385395  .00008718  00000-0  43387-3 0  9991
2 43017  97.5100 126.8822 0167655 191.7330 167.9971 15.06301193423954
S-Net D
1 43186U 18014G   25258.29639399  .00007279  00000-0  41845-3 0  9998
2 43186  97.5500 160.2031 0007049 243.6787 116.3720 15.12763243417141
S-Net B
1 43187U 18014H   25258.17079528  .00006961  00000-0  40056-3 0  9998
2 43187  97.5506 160.0552 0007780 238.8044 121.2425 15.12740668417129
S-Net A
1 43188U 18014J   25258.23028596  .00007263  00000-0  41745-3 0  9997
2 43188  97.5514 160.2774 0007701 239.4416 120.6056 15.12767769417135
S-Net C
1 43189U 18014K   25258.17343379  .00006980  00000-0  40155-3 0  9999
2 43189  97.5530 160.2519 0009278 231.7143 128.3254 15.12736934415676
Ten-Koh
1 43677U 18084G   25258.47246006  .00003020  00000-0  24149-3 0  9997
2 43677  98.0811  74.6106 0005887 295.3099  64.7514 15.01018914374927
PO-101
1 43678U 18084H   25258.61195200  .00001500  00000-0  12991-3 0  9996
2 43678  98.1089  78.5421 0008336 328.5385  31.5337 14.98758545375065
QO-100
1 43700U 18090A   25258.51827566  .00000128  00000-0  00000-0 0  9995
2 43700   0.0178 111.8428 0001603 105.9454 349.3432  1.00273940 24926
MinXSS-2
1 43758U 18099A   25257.70275919  .00014933  00000-0  53532-3 0  9996
2 43758  97.4924 324.1976 0011848 167.9853 192.1671 15.28759918371796
AO-95
1 43770U 18099N   25258.40456485  .00015768  00000-0  75590-3 0  9992
2 43770  97.4819 315.4651 0009359 224.2759 135.7728 15.18956992371394
SNUSat 2
1 43782U 18099AA  25258.60715719  .00007963  00000-0  41738-3 0  9990
2 43782  97.4504 311.5973 0012294 166.8592 193.2964 15.15981959371344
SnugLite
1 43784U 18099AC  25258.61066079  .00011665  00000-0  55518-3 0  9996
2 43784  97.4317 311.3805 0004241 152.4079 207.7381 15.19308267371516
ITASat 1
1 43786U 18099AE  25258.59450915  .00006677  00000-0  36938-3 0  9993
2 43786  97.4472 310.7948 0012997 221.7331 138.2910 15.14117978371281
EAGLET 1
1 43790U 18099AJ  25258.59737021  .00004068  00000-0  25499-3 0  9996
2 43790  97.4669 310.4077 0011185 205.3142 154.7541 15.09840666370856
ESEO
1 43792U 18099AL  25258.34921607  .00002453  00000-0  18664-3 0  9998
2 43792  97.4365 302.0943 0012140 186.4792 173.6278 15.02946152370501
JO-97
1 43803U 18099AX  25258.49071009  .00015297  00000-0  65188-3 0  9992
2 43803  97.4566 316.7780 0008191 153.4320 206.7338 15.23015472371668
Suomi 100
1 43804U 18099AY  25257.88322691  .00008780  00000-0  40778-3 0  9998
2 43804  97.4629 315.1713 0012676 162.5078 197.6596 15.20171219371474
ISAT
1 43879U 18111D   25258.42724759  .00040241  00000-0  12250-2 0  9998
2 43879  97.5869 175.1918 0007070 188.1711 171.9417 15.33867094368676
UWE-4
1 43880U 18111E   25258.49473657  .00020320  00000-0  72534-3 0  9993
2 43880  97.5811 172.9926 0009418 213.9232 146.1406 15.28858078368579
Sparrow
1 43881U 18111F   25258.58386952  .00032652  00000-0  94901-3 0  9998
2 43881  97.6034 178.6398 0003627 227.1305 132.9634 15.35394164368809
Prox-1
1 44339U 19036A   25258.32607756  .00026963  00000-0  32822-2 0  9995
2 44339  23.9952 138.8362 0006821 105.3719 254.7533 14.81961645332528
Taurus 1
1 44530U 19059C   25258.64564451  .00007876  00000-0  14119-2 0  9993
2 44530  98.6171  42.8263 0009618  93.8551 266.3752 14.67026434318314
Duchifat 3
1 44854U 19089C   25257.90350595  .00078019  00000-0  10458-2 0  9994
2 44854  36.9379  92.3699 0007153 354.9671   5.1016 15.56795546318135
TO-108
1 44881U 19093C   25258.55446992  .00000800  00000-0  98112-4 0  9996
2 44881  97.7852 332.1312 0012293 269.7788  90.2019 14.85789664310625
FloripaSat 1
1 44885U 19093G   25258.54505838  .00006208  00000-0  51008-3 0  9994
2 44885  97.8165 346.3976 0008265 236.1822 123.8615 14.99511688311429
RS-44
1 44909U 19096E   25258.43669142  .00000022  00000-0  34927-4 0  9991
2 44909  82.5252 162.2810 0218523  66.8399 295.5561 12.79743484267203
UPMSat 2
1 46276U 20061E   25258.47951575  .00373196  53952-4  12251-2 0  9999
2 46276  97.2294 337.2894 0003679 221.2672 138.8323 15.90514121280897
SALSAT
1 46495U 20068K   25258.48819457  .00008062  00000-0  33435-3 0  9999
2 46495  97.8709 241.1823 0011249 171.3408 188.8025 15.24108172273434
